Fort Morgan, CO

2:06 AM MST on December 15, 2017 (GMT -0700)
Fort Morgan

Weather History for KFMM - January, 2014

Change the Weather History Date:

Wednesday, January 29, 2014

  Actual Average (KAKO) Record (KAKO)
Temperature  
Mean Temperature 20 °F -  
Max Temperature 40 °F 37 °F 63 °F (1976)
Min Temperature 0 °F 17 °F -15 °F (1949)
Degree Days  
Heating Degree Days 45    
Moisture  
Dew Point 17 °F    
Average Humidity 65    
Maximum Humidity 82    
Minimum Humidity 47    
Precipitation  
Precipitation 0.00 in - - ()
Sea Level Pressure  
Sea Level Pressure 29.69 in    
Wind  
Wind Speed 5 mph (WSW)    
Max Wind Speed 15 mph    
Max Gust Speed -    
Visibility 10 miles    
Events      
Averages and records for this station are not official NWS values.
T = Trace of Precipitation, MM = Missing Value Source: NWS Daily Summary

Daily Weather History Graph

Daily Weather History Graph

Search for Another Location

Airport or City:

Trip Planner

Search our weather history database for the weather conditions in past years. The results will help you decide how hot, cold, wet, or windy it might be!

Date:

Astronomy

Jan. 29, 2014 Rise Set
Actual Time 7:07 AM MST 5:10 PM MST
Civil Twilight 6:38 AM MST 5:39 PM MST
Nautical Twilight 6:05 AM MST 6:11 PM MST
Astronomical Twilight 5:33 AM MST 6:43 PM MST
Moon 5:45 AM MST (1/29) 4:12 PM MST (1/29)
Length of Visible Light 11h 01m
Length of Day
10h 03m
Waning Crescent, 2% of the Moon is Illuminated
Jan 29
Waning Crescent
Jan 30
New
Feb 6
First Quarter
Feb 14
Full
Feb 22
Last Quarter

Hourly Weather History & Observations

Time (MST) Temp. Windchill Dew Point Humidity Pressure Visibility Wind Dir Wind Speed Gust Speed Precip Events Conditions
6:55 AM -0.6 °F -10.6 °F -6.2 °F 77% 29.92 in 10.0 mi SSW 4.6 mph - N/A   Clear
7:15 AM -0.4 °F -19.2 °F -4.9 °F 81% 29.92 in 10.0 mi West 13.8 mph - N/A   Clear
7:35 AM 0.5 °F -18.7 °F -3.8 °F 82% 29.91 in 10.0 mi West 15.0 mph - N/A   Clear
7:55 AM 2.8 °F -10.7 °F -2.4 °F 79% 29.92 in 10.0 mi West 8.1 mph - N/A   Clear
8:15 AM 6.6 °F -6.1 °F -0.6 °F 72% 29.92 in 10.0 mi West 8.1 mph - N/A   Clear
8:35 AM 8.6 °F 0.1 °F 0.7 °F 70% 29.92 in 10.0 mi WSW 4.6 mph - N/A   Clear
8:55 AM 12.0 °F - 2.7 °F 66% 29.92 in 10.0 mi Calm Calm - N/A   Clear
9:15 AM 13.1 °F - 3.6 °F 66% 29.91 in 10.0 mi Calm Calm - N/A   Clear
9:35 AM 16.7 °F 9.6 °F 5.9 °F 63% 29.91 in 10.0 mi WSW 4.6 mph - N/A   Clear
9:55 AM 17.8 °F 12.5 °F 7.0 °F 63% 29.91 in 10.0 mi WSW 3.5 mph - N/A   Clear
10:15 AM 18.0 °F 11.1 °F 7.5 °F 64% 29.91 in 10.0 mi WSW 4.6 mph - N/A   Clear
10:35 AM 18.3 °F 13.1 °F 8.4 °F 65% 29.89 in 10.0 mi West 3.5 mph - N/A   Clear
10:55 AM 21.9 °F 15.7 °F 10.4 °F 61% 29.88 in 10.0 mi WNW 4.6 mph - N/A   Clear
11:15 AM 25.5 °F 18.7 °F 11.7 °F 56% 29.87 in 10.0 mi WSW 5.8 mph - N/A   Clear
11:35 AM 27.1 °F 23.2 °F 11.1 °F 51% 29.87 in 10.0 mi SW 3.5 mph - N/A   Clear
11:55 AM 27.9 °F - 11.1 °F 50% 29.85 in 10.0 mi Calm Calm - N/A   Clear
12:15 PM 28.9 °F - 11.8 °F 49% 29.83 in 10.0 mi Calm Calm - N/A   Clear
12:35 PM 31.3 °F - 14.2 °F 49% 29.81 in 10.0 mi Calm Calm - N/A   Clear
12:55 PM 32.0 °F - 16.2 °F 52% 29.80 in 10.0 mi Calm Calm - N/A   Clear
1:15 PM 34.0 °F 31.0 °F 17.6 °F 51% 29.78 in 10.0 mi WSW 3.5 mph - N/A   Clear
1:35 PM 36.9 °F - 19.8 °F 50% 29.77 in 10.0 mi Calm Calm - N/A   Clear
1:55 PM 39.4 °F - 20.5 °F 47% 29.76 in 10.0 mi Calm Calm - N/A   Clear
2:15 PM 40.3 °F - 21.4 °F 47% 29.74 in 10.0 mi Calm Calm - N/A   Clear
2:35 PM 39.9 °F - 23.0 °F 51% 29.72 in 10.0 mi Calm Calm - N/A   Clear
2:55 PM 38.7 °F - 22.5 °F 52% 29.70 in 10.0 mi Calm Calm - N/A   Clear
3:15 PM 39.2 °F - 24.8 °F 56% 29.69 in 10.0 mi Calm Calm - N/A   Clear
3:35 PM 37.8 °F - 27.1 °F 66% 29.68 in 10.0 mi Calm Calm - N/A   Clear
3:55 PM 38.1 °F - 27.5 °F 66% 29.66 in 10.0 mi Calm Calm - N/A   Clear
4:15 PM 37.4 °F - 28.6 °F 70% 29.65 in 10.0 mi Calm Calm - N/A   Clear
4:35 PM 34.0 °F - 26.8 °F 75% 29.63 in 10.0 mi North - - N/A   Scattered Clouds
4:55 PM 33.3 °F 30.2 °F 25.5 °F 73% 29.62 in 10.0 mi West 3.5 mph - N/A   Scattered Clouds
5:15 PM 35.4 °F - 26.1 °F 69% 29.60 in 10.0 mi Calm Calm - N/A   Scattered Clouds
5:35 PM 36.9 °F 34.3 °F 24.8 °F 62% 29.60 in 10.0 mi SSW 3.5 mph - N/A   Clear
5:55 PM 37.6 °F - 24.6 °F 60% 29.59 in 10.0 mi Calm Calm - N/A   Clear
6:15 PM 37.2 °F 34.7 °F 24.8 °F 61% 29.57 in 10.0 mi South 3.5 mph - N/A   Clear
6:35 PM 36.1 °F 32.3 °F 26.1 °F 67% 29.57 in 10.0 mi SSW 4.6 mph - N/A   Scattered Clouds
6:55 PM 35.6 °F 30.7 °F 25.2 °F 66% 29.56 in 10.0 mi WSW 5.8 mph - N/A   Clear
7:15 PM 32.9 °F 28.5 °F 25.7 °F 75% 29.54 in 10.0 mi WSW 4.6 mph - N/A   Clear
7:35 PM 32.0 °F 26.4 °F 24.8 °F 75% 29.53 in 10.0 mi West 5.8 mph - N/A   Clear
7:55 PM 32.7 °F 25.7 °F 23.9 °F 70% 29.51 in 10.0 mi West 8.1 mph - N/A   Scattered Clouds
8:15 PM 32.0 °F 26.4 °F 23.4 °F 70% 29.49 in 10.0 mi West 5.8 mph - N/A   Clear
8:35 PM 32.0 °F 26.4 °F 23.0 °F 69% 29.48 in 10.0 mi West 5.8 mph - N/A   Clear
8:55 PM 31.5 °F 24.2 °F 23.0 °F 71% 29.48 in 10.0 mi West 8.1 mph - N/A   Clear
9:15 PM 32.0 °F 26.4 °F 23.4 °F 70% 29.48 in 10.0 mi West 5.8 mph - N/A   Clear
9:35 PM 31.6 °F 23.7 °F 23.9 °F 73% 29.48 in 10.0 mi West 9.2 mph - N/A   Clear
9:55 PM 32.0 °F 28.7 °F 23.9 °F 72% 29.46 in 10.0 mi West 3.5 mph - N/A   Clear
10:15 PM 32.4 °F 26.0 °F 23.9 °F 71% 29.46 in 10.0 mi West 6.9 mph - N/A   Clear
10:35 PM 32.0 °F 25.6 °F 24.6 °F 74% 29.46 in 10.0 mi West 6.9 mph - N/A   Clear
10:55 PM 31.5 °F 23.5 °F 24.6 °F 76% 29.44 in 10.0 mi West 9.2 mph - N/A   Clear
11:15 PM 31.8 °F 24.6 °F 24.8 °F 75% 29.42 in 10.0 mi WSW 8.1 mph - N/A   Clear
11:35 PM 32.2 °F 23.2 °F 25.5 °F 76% 29.42 in 10.0 mi West 11.5 mph - N/A   Clear
11:55 PM 33.6 °F 25.6 °F 26.8 °F 76% 29.44 in 10.0 mi West 10.4 mph - N/A   Clear